Hourly Data Report for July 02, 2022

FISHER BRANCH (AUT)
MANITOBA
Current Station Operator: ECCC - MSC

51°05'00.100" N
97°33'16.200" W
253.00 m
50309J6
71442
WSZ

Download Data

Hourly Data (July 2022)
Hourly Data Report for July 2, 2022
TIME
LST
Temp Definition
°C
Dew Point Definition
°C
Rel Hum Definition
%
Precip. Amount Definition
mm

Wind Dir Definition
10's deg

Wind Spd Definition
km/h
Visibility Definition
km
Stn Press Definition
kPa
Hmdx Definition


Wind Chill Definition


Weather Definition


00:00 8.3 5.8 84 0.0 28 6   98.68     LegendNANA
01:00 8.0 5.7 85 0.0 28 6   98.70     LegendNANA
02:00 8.8 6.7 87 0.0 26 6   98.72     LegendNANA
03:00 7.5 6.4 93 0.0 27 4   98.73     LegendNANA
04:00 7.9 6.6 92 0.0 26 5   98.76     LegendNANA
05:00 8.9 7.6 91 0.0 26 5   98.79     LegendNANA
06:00 9.8 8.9 94 0.0 26 2   98.83     LegendNANA
07:00 13.3 9.3 77 0.0 28 5   98.86     LegendNANA
08:00 16.3 8.2 59 0.0 29 10   98.89     LegendNANA
09:00 17.5 5.0 43 0.0 30 12   98.91     LegendNANA
10:00 18.1 4.0 39 0.0 32 8   98.90     LegendNANA
11:00 19.1 5.0 39 0.0 28 7   98.88     LegendNANA
12:00 19.2 5.3 40 0.0 30 8   98.87     LegendNANA
13:00 19.4 5.1 39 0.0 35 10   98.85     LegendNANA
14:00 19.8 4.2 36 0.0 35 7   98.81     LegendNANA
15:00 20.2 4.6 36 0.0 6 6   98.79     LegendNANA
16:00 20.1 5.1 37 0.0 22 6   98.77     LegendNANA
17:00 20.5 6.3 40 0.0 27 7   98.75     LegendNANA
18:00 20.3 6.4 41 0.0 23 8   98.70     LegendNANA
19:00 19.9 5.9 40 0.0 25 9   98.68     LegendNANA
20:00 17.4 7.0 50 0.0 24 7   98.67     LegendNANA
21:00 16.4 7.6 56 0.0 25 8   98.70     LegendNANA
22:00 13.4 7.8 69 0.0 25 5   98.69     LegendNANA
23:00 12.1 8.6 79 0.0 22 6   98.69     LegendNANA

Notes on Data Quality.

Legend

  • E = Estimated
  • M = Missing
  • NA = Not Available*
  • [empty] = Indicates an unobserved value
Date modified: